Flag for United Kingdom Weather past 2 weeks in Preston, England, United Kingdom

Now
55 °F

Passing clouds.


Feels Like: 51 °F
Forecast: 48 / 55 °F
Wind: 18 mph from Northwest

Location: Blackpool Airport

Current Time: May 24, 2015 at 1:17:14 PM

Latest Report: May 24, 2015 at 12:50 PM


Visibility: N/A

Pressure: 30.12 "Hg

Humidity: 63%

Dew point: 43 °F

Location of PrestonLocation

Historic Weather in Preston — Graph

°F

Preston temperature yesterday

Maximum temperature yesterday: 55 °F (at 12:50 PM)
Minimum temperature yesterday: 50 °F (at 6:20 AM)
Average temperature yesterday: 54 °F

Past Weeks' High & Low Weather Summary

 TemperatureHumidityPressure
High59 °F (May 10, 11:20 AM)100% (May 19, 2:50 PM)30.39 "Hg (May 19, 2:50 PM)
Low34 °F (May 19, 2:50 PM)44% (May 14, 12:50 PM)29.45 "Hg (May 19, 6:50 AM)
Average53 °F75%30.03 "Hg
* Reported May 9 12:20 PM — May 24 12:20 PM, Preston, Weather by CustomWeather, © 2015

Note: Actual official high and low records may vary slightly from our data, if they occured in-between our weather recording intervals... More about our weather records

Advertising

Preston weather history for previous 24 hours

 ConditionsComfort  
Time TempWeatherWind HumidityBarometerVisibility
12:20 PM
Sun, May 24
54 °FPassing clouds.16 mph67%30.12 "HgN/A
11:50 AM54 °FPassing clouds.16 mph67%30.09 "HgN/A
10:50 AM52 °FPassing clouds.17 mph77%30.09 "HgN/A
10:20 AM52 °FScattered clouds.6 mph77%30.09 "HgN/A
9:50 AM54 °FPassing clouds.16 mph82%30.09 "HgN/A
9:20 AM52 °FScattered clouds.14 mph88%30.07 "HgN/A
8:50 AM52 °FBroken clouds.15 mph94%30.07 "Hg5 mi
8:20 AM52 °FPartly sunny.17 mph94%30.07 "Hg4 mi
7:50 AM54 °FPartly sunny.17 mph94%30.07 "Hg3 mi
7:20 AM54 °FPartly sunny.18 mph94%30.04 "Hg3 mi
6:50 AM54 °FLight rain. Partly sunny.16 mph94%30.04 "Hg2 mi
8:50 PM
Sat, May 23
52 °FSunny.3 mph77%30.18 "Hg10 mi
7:50 PM54 °FSunny.5 mph72%30.21 "Hg10 mi
7:20 PM55 °FSunny.7 mph72%30.21 "Hg10 mi
6:50 PM55 °FPassing clouds.7 mph77%30.21 "HgN/A
6:20 PM55 °FPassing clouds.8 mph72%30.21 "HgN/A
5:50 PM55 °FSunny.9 mph72%30.24 "Hg10 mi
5:20 PM55 °FSunny.8 mph72%30.24 "Hg10 mi
4:50 PM55 °FPassing clouds.8 mph77%30.24 "HgN/A
3:20 PM55 °FPassing clouds.9 mph72%30.27 "HgN/A
2:50 PM55 °FPassing clouds.10 mph72%30.27 "HgN/A
2:20 PM55 °FPassing clouds.9 mph72%30.27 "HgN/A
1:50 PM55 °FCool.N/A77%30.27 "HgN/A
1:20 PM55 °FPassing clouds.9 mph77%30.30 "HgN/A
Weather by CustomWeather, © 2015

See weather overviewHow to use our weather pages